Weather History for Columbus AFB, MS

Change the Weather History Date:

Monday, February 4, 2013

  Actual Average Record
Temperature  
Mean Temperature 43 °F -  
Max Temperature 54 °F 53 °F 75 °F (2008)
Min Temperature 32 °F 35 °F 16 °F (2009)
Degree Days  
Heating Degree Days 22    
Moisture  
Dew Point 33 °F    
Average Humidity 64    
Maximum Humidity 92    
Minimum Humidity 41    
Precipitation  
Precipitation 0.00 in - - ()
Sea Level Pressure  
Sea Level Pressure 30.05 in    
Wind  
Wind Speed 4 mph (South)    
Max Wind Speed 14 mph    
Max Gust Speed 18 mph    
Visibility 10 miles    
Events Rain    
Averages and records for this station are not official NWS values.
T = Trace of Precipitation, MM = Missing Value Source: NWS Daily Summary

Daily Weather History Graph

Daily Weather History Graph

Search for Another Location

Airport:

Trip Planner

Search our weather history database for the weather conditions in past years. The results will help you decide how hot, cold, wet, or windy it might be!

Date:

Astronomy

Feb. 04, 2013 Rise Set
Actual Time 6:47 AM CST 5:28 PM CST
Civil Twilight 6:21 AM CST 5:54 PM CST
Nautical Twilight 5:52 AM CST 6:23 PM CST
Astronomical Twilight 5:22 AM CST 6:53 PM CST
Moon 1:19 AM CST (2/4) 11:55 AM CST (2/4)
Length of Visible Light 11h 32m
Length of Day
10h 40m
Last Quarter, 37% of the Moon is Illuminated
Feb 4
Last Quarter
Feb 10
New
Feb 17
First Quarter
Feb 25
Full
Mar 4
Last Quarter

Hourly Weather History & Observations

Time (CST) Temp. Windchill Dew Point Humidity Pressure Visibility Wind Dir Wind Speed Gust Speed Precip Events Conditions
12:58 AM 32.9 °F - 28.6 °F 84% 30.13 in 10.0 mi Calm Calm - N/A   Clear
1:58 AM 32.7 °F - 30.0 °F 90% 30.13 in 10.0 mi Calm Calm - N/A   Partly Cloudy
2:58 AM 33.6 °F - 29.7 °F 85% 30.13 in 10.0 mi Calm Calm - N/A   Partly Cloudy
4:58 AM 34.3 °F - 31.5 °F 89% 30.12 in 10.0 mi Calm Calm - N/A   Scattered Clouds
5:58 AM 34.9 °F - 31.8 °F 89% 30.12 in 10.0 mi Calm Calm - N/A   Partly Cloudy
6:58 AM 32.9 °F - 30.7 °F 92% 30.14 in 10.0 mi WNW 1.2 mph - N/A   Overcast
7:58 AM 36.1 °F - 33.3 °F 89% 30.14 in 10.0 mi Calm Calm - N/A   Mostly Cloudy
8:58 AM 41.7 °F 37.3 °F 33.8 °F 73% 30.13 in 10.0 mi South 6.9 mph - N/A   Partly Cloudy
9:58 AM 47.8 °F - 31.3 °F 53% 30.12 in 10.0 mi South 10.4 mph - N/A   Partly Cloudy
10:58 AM 49.6 °F - 29.8 °F 47% 30.10 in 10.0 mi South 13.8 mph - N/A   Scattered Clouds
11:58 AM 50.5 °F - 30.4 °F 46% 30.09 in 10.0 mi South 10.4 mph - N/A   Partly Cloudy
12:58 PM 51.1 °F - 30.2 °F 45% 30.04 in 10.0 mi South 8.1 mph - N/A   Clear
1:58 PM 53.4 °F - 31.1 °F 43% 30.02 in 10.0 mi South 11.5 mph - N/A   Overcast
2:58 PM 54.7 °F - 31.3 °F 41% 30.02 in 10.0 mi SSW 13.8 mph 18.4 mph N/A   Mostly Cloudy
3:58 PM 54.9 °F - 32.0 °F 42% 30.01 in 10.0 mi South 8.1 mph - N/A   Scattered Clouds
4:58 PM 53.1 °F - 32.5 °F 46% 30.01 in 10.0 mi South 3.5 mph - N/A   Mostly Cloudy
5:58 PM 49.3 °F - 35.1 °F 58% 30.00 in 10.0 mi SSE 4.6 mph - N/A   Mostly Cloudy
6:58 PM 49.1 °F - 35.4 °F 59% 30.01 in 10.0 mi SSE 5.8 mph - N/A   Scattered Clouds
7:58 PM 48.6 °F - 35.2 °F 60% 29.99 in 10.0 mi South 5.8 mph - N/A   Overcast
8:58 PM 47.7 °F - 35.8 °F 63% 29.99 in 10.0 mi South 4.6 mph - N/A   Overcast
9:58 PM 46.9 °F - 36.0 °F 66% 29.99 in 10.0 mi South 2.3 mph - N/A   Overcast
10:36 PM 50.0 °F - 35.6 °F 58% 29.98 in 10.0 mi South 5.8 mph - N/A Rain Light Rain
10:44 PM 50.0 °F - 35.6 °F 58% 29.98 in 10.0 mi South 4.6 mph - N/A   Mostly Cloudy
10:58 PM 50.0 °F - 35.6 °F 58% 29.98 in 10.0 mi South 6.9 mph - N/A   Mostly Cloudy
11:58 PM 50.7 °F - 36.0 °F 57% 29.97 in 10.0 mi SSW 3.5 mph - N/A   Overcast